Location: Lafig�re
(44.4503°N, 4.0357°E)
Time: 16:39:02
(UTC+00:00)

Cosmos 1626 - Pass Details

Date: 24 September 2020
Orbit: 490 x 495 km, 82.5° (Epoch: 25 October)

Event Time Altitude Azimuth Distance (km) Brightness Sun altitude
Rises 19:36:27 0° 352° (N) 2,584 6.2 -21.7°
Reaches altitude 10° 19:38:34 10° 353° (N) 1,696 5.2 -22.1°
Enters shadow 19:41:39 60° 0° (N) 570 2.4 -22.6°
